Tracking 20093 objects as of 16-Dec-2019
HD Live streaming from Space Station
objects crossing your sky now

COSMOS 2251 DEB

Track COSMOS 2251 DEB now!
10-day predictions


NORAD ID: 35019
Int'l Code: 1993-036AGG
Perigee: 634.9 km
Apogee: 674.1 km
Inclination: 74.0 °
Period: 97.7 minutes
Semi major axis: 7025 km
RCS: 0.0084 m2 (small)
Launch date: June 16, 1993
Source: Commonwealth of Independent States (former USSR) (CIS)
Launch site: PLESETSK MISSILE AND SPACE COMPLEX (PKMTR)

Note: This is SATELLITE DEBRIS
aabbcc
Your satellite tracking list
Your tracking list is empty




NASA's NSSDC Master Catalog

Two Line Element Set (TLE):
1 35019U 93036AGG 19349.61943203 +.00001899 +00000-0 +29018-3 0  9993
2 35019 074.0104 057.7291 0027882 344.9387 015.0953 14.74309197567165
Source of the keplerian elements: AFSPC